Location: Krasnoyarskiy Pitomnik
(51.1333°N, 71.6167°E)
Time: 22:25:00
(UTC+00:00)

A-11 Canister half - Pass Details

Date: 19 April 2024
Orbit: 1525 x 1683 km, 47.3° (Epoch: 19 May)

Event Time Altitude Azimuth Distance (km) Brightness Sun altitude
Rises 07:11:28 0° 286° (WNW) 4,941 11.5 50.2°
Reaches altitude 10° 07:14:50 10° 280° (W) 3,950 11.2 50.2°
Maximum altitude 07:24:08 43° 214° (SW) 2,205 11.5 50.2°
Drops below altitude 10° 07:33:16 10° 147° (SSE) 3,873 11.7 50.0°
Sets 07:36:33 0° 141° (SE) 4,837 12.0 50.0°
